Dewpoint
61 60 61 61 61 61 62 62 62 62 61 61 61 60 60 60 60 60 59 59 58 57 57 57 57 57 57 57 57 56 56 57 57 57 57 57 57 58 58 58 58 58 59 59 60 59 59 58 58 58 58 58 57 57 57 57 56 56 56 55 53 49 43 43 40 40 41 42 40 39 38 39 38 39 40 43 45 44 44 43 45 44 43 43 44
61 61 61 61 61 61 62 63 62 62 60 60 60 60 60 60 60 60 59 59 57 56 56 57 56 57 57 56 55 55 56 56 56 56 56 56 56 57 57 57 58 57 57 58 57 59 58 58 58 57 57 57 57 56 56 56 56 56 56 55 53 50 46 44 43 39 38 40 39 37 38 38 36 39 40 43 45 45 41 42 44 43 41 43 44
60 60 61 61 61 61 62 62 62 60 60 59 60 60 60 59 60 59 59 59 57 56 56 56 56 56 56 55 54 54 54 54 54 54 54 54 53 54 56 56 56 56 56 56 57 58 58 58 57 57 57 56 56 55 56 55 55 55 55 55 52 49 46 43 42 40 38 39 39 35 35 37 38 38 39 43 45 44 39 40 40 41 41 41 42
59 59 60 61 61 61 61 61 60 60 59 59 59 59 60 60 60 59 60 59 56 55 55 55 56 56 56 54 54 53 53 53 52 51 52 52 52 53 54 55 56 56 56 56 57 58 58 57 56 56 55 55 54 53 53 53 53 53 54 53 51 49 47 45 42 40 40 39 38 33 35 36 40 39 39 42 45 44 40 39 39 38 39 40 39
59 59 59 59 60 60 60 60 59 59 59 59 58 59 59 59 58 58 59 57 55 55 54 54 54 55 55 54 53 53 52 51 50 51 53 53 53 53 54 54 55 55 55 56 59 57 56 56 55 56 54 53 51 51 50 51 50 53 53 53 52 51 48 46 43 40 39 38 39 38 37 37 41 41 41 41 44 44 41 39 37 37 38 40 38
59 59 59 58 58 59 59 58 59 58 58 58 58 59 59 58 57 58 58 56 55 54 54 53 53 53 53 53 53 52 52 49 49 51 52 52 52 53 53 54 54 54 55 56 56 56 56 55 55 54 52 52 51 50 51 50 51 49 51 52 52 51 48 46 43 41 39 39 38 38 38 38 40 41 41 42 43 44 41 40 39 38 39 41 40
58 58 58 58 58 58 58 58 58 58 58 57 57 58 57 57 56 57 57 56 54 54 52 51 52 52 52 52 52 52 51 50 50 51 51 52 52 51 52 53 53 53 54 54 54 54 54 54 53 53 52 52 52 52 51 51 52 51 50 51 50 50 47 45 43 41 40 39 38 37 37 40 41 40 41 42 43 43 43 41 40 39 40 42 42
57 57 57 56 57 57 57 58 57 57 57 58 57 57 56 56 56 56 56 54 53 53 50 50 50 50 50 51 51 51 50 49 49 51 52 52 51 51 52 52 53 52 52 51 51 51 51 50 50 51 53 53 53 52 52 51 51 51 51 50 49 49 47 45 43 42 41 40 39 39 39 38 40 41 43 43 42 43 42 42 41 41 40 42 42
56 56 57 57 57 57 57 57 57 58 57 57 57 56 56 56 56 55 54 54 54 52 49 48 50 52 52 51 51 52 51 51 51 51 51 51 52 53 53 53 53 53 53 54 54 54 54 52 51 51 53 53 51 52 53 52 49 48 49 51 49 49 47 45 44 43 42 41 40 41 40 40 40 40 41 42 42 41 42 42 41 41 41 41 42
58 58 57 57 57 57 57 57 57 57 57 57 56 56 55 55 55 54 54 54 53 51 50 51 51 51 50 50 50 50 49 49 50 50 51 54 54 54 54 54 54 54 54 54 54 55 55 56 56 56 52 50 47 44 45 47 49 49 49 50 51 51 48 46 45 45 44 42 41 41 41 39 39 39 41 41 42 42 42 43 41 41 41 41 42
58 57 57 57 56 56 56 56 57 57 57 56 56 56 55 55 54 54 54 53 52 51 51 51 51 50 50 49 48 49 48 48 47 46 47 50 54 54 54 54 54 54 53 53 54 54 54 54 55 57 54 52 47 43 42 42 42 43 45 48 50 49 50 50 49 47 46 45 44 42 42 40 40 40 40 42 42 42 42 42 43 42 41 41 40
57 57 56 57 56 56 56 55 56 56 56 56 56 55 54 54 53 53 53 53 52 51 51 50 50 50 49 49 48 48 47 45 45 46 47 48 51 55 55 54 54 54 54 54 54 54 54 54 54 56 56 54 52 50 47 43 42 42 42 42 42 44 46 49 49 49 49 48 48 46 42 42 42 43 43 43 42 43 43 43 43 43 42 41 41
57 57 56 56 56 55 55 55 55 55 55 55 55 55 54 54 54 54 54 54 52 52 51 50 50 50 49 49 48 48 46 42 44 45 46 47 48 52 54 54 54 54 54 54 53 53 53 54 54 56 58 59 57 54 53 51 46 45 45 44 44 43 43 43 45 49 52 51 51 50 48 47 47 48 48 47 44 43 44 44 44 44 44 42 42
56 55 56 56 55 55 55 54 54 54 55 55 54 55 55 55 55 55 54 53 52 51 50 50 50 50 49 48 48 47 47 43 43 45 45 46 47 51 55 55 54 54 54 54 53 53 52 52 53 54 55 55 54 53 52 51 50 50 50 50 50 49 43 42 41 42 47 50 51 50 51 51 50 49 50 50 50 49 49 49 47 47 46 45 45
52 54 54 55 55 54 55 55 55 55 55 55 55 55 55 55 55 55 54 53 52 50 50 50 50 49 49 48 47 47 45 41 43 45 46 46 47 50 56 56 55 54 53 53 53 53 54 54 54 54 53 50 46 48 52 51 49 50 49 51 50 51 47 47 47 46 46 47 48 49 50 51 50 50 50 50 50 50 49 50 50 50 50 49 50
48 50 51 54 54 54 54 54 55 55 55 55 55 54 54 54 55 54 54 54 53 52 51 50 50 49 49 49 48 47 45 40 43 44 44 44 46 54 56 55 55 55 56 56 56 55 55 55 55 52 50 48 43 40 45 51 50 51 50 49 51 50 47 44 40 39 42 45 48 48 48 48 47 47 47 47 49 50 51 49 49 49 48 48 49
44 47 49 50 53 54 54 54 54 54 54 54 54 54 54 54 55 55 55 54 54 53 52 52 51 50 50 49 48 47 46 42 41 44 44 44 47 53 55 55 56 55 55 53 52 52 54 54 53 51 49 48 42 40 42 49 51 50 50 49 49 49 51 47 41 40 39 39 39 39 39 39 40 40 40 40 43 47 49 48 50 48 45 47 47
40 43 46 48 50 53 54 54 54 53 53 54 54 54 54 54 55 55 55 54 54 54 53 53 52 51 50 49 49 47 46 43 41 43 45 47 50 55 55 55 55 54 53 52 49 48 50 52 51 49 48 46 40 40 42 48 50 49 49 48 48 49 49 49 49 46 43 42 41 41 41 41 42 43 41 40 42 46 49 49 48 47 47 47 47
38 40 44 45 45 47 50 53 54 54 53 54 54 54 54 55 54 56 55 55 54 53 52 52 51 51 50 50 50 48 47 45 42 42 44 46 51 54 54 54 54 53 52 50 48 47 45 45 46 45 45 41 38 38 40 46 48 47 47 47 46 47 47 46 47 47 47 46 44 44 43 44 45 45 44 42 43 45 46 48 48 49 49 49 49
37 39 39 42 44 45 47 48 50 53 54 54 54 54 54 55 55 55 55 55 54 54 54 53 51 49 48 48 48 48 47 45 42 41 42 44 46 52 53 53 53 52 51 48 46 46 45 44 42 37 38 38 38 37 37 40 46 45 46 46 45 46 46 45 45 44 44 44 44 43 43 44 42 43 43 43 44 45 43 45 46 48 49 49 48
38 38 38 38 38 42 46 47 47 48 50 53 53 53 54 55 55 55 55 55 55 54 53 52 51 50 50 49 48 46 46 44 42 39 40 42 44 48 52 52 51 49 47 46 45 45 45 44 42 39 38 38 37 36 36 38 41 44 44 44 44 44 40 44 43 45 44 43 42 42 42 41 41 42 42 42 42 41 42 42 43 44 46 46 47
37 38 38 38 38 38 38 44 46 46 46 46 47 47 49 52 54 55 55 54 53 52 51 50 49 48 47 46 44 44 44 43 42 39 39 40 41 44 48 46 47 45 45 44 44 43 43 42 41 39 38 37 37 37 36 37 39 43 39 37 37 36 42 43 43 44 45 45 44 42 42 42 43 43 41 40 40 40 39 38 39 40 40 43 45
38 38 38 39 39 39 38 36 39 43 44 45 43 43 46 48 49 52 53 53 52 50 48 47 45 45 45 45 45 44 42 42 40 40 38 38 38 40 42 44 42 45 44 43 43 43 42 41 41 40 37 36 35 35 37 39 40 38 36 37 39 40 42 44 44 45 45 45 46 46 46 45 44 44 43 42 39 38 38 39 39 39 39 40 41
39 39 38 38 40 40 42 37 35 34 36 38 38 41 43 44 46 48 50 52 51 49 47 45 44 45 44 43 41 41 41 40 40 39 39 37 36 38 39 40 41 44 44 43 41 40 39 39 39 38 37 35 34 34 34 36 37 36 38 40 40 41 42 43 44 44 42 43 44 46 46 46 44 43 42 41 39 39 39 39 39 39 39 40 40
40 40 39 38 35 35 41 40 36 35 34 35 35 36 38 39 40 43 45 47 48 47 47 46 44 40 38 38 38 38 39 39 39 39 38 38 36 35 36 38 38 39 41 41 40 38 36 35 36 37 38 37 35 36 37 36 35 36 38 39 43 40 42 42 42 42 42 42 43 44 44 45 43 42 40 39 39 38 37 38 39 40 40 40 40
40 40 40 40 39 33 32 34 34 34 35 35 35 36 36 37 38 39 42 44 44 44 42 38 36 36 36 36 36 37 37 37 38 38 39 40 39 38 37 38 39 39 40 39 38 37 37 36 37 38 38 37 38 38 37 37 36 35 36 40 39 40 40 42 42 42 41 41 41 41 42 41 39 39 39 39 39 38 38 38 38 38 38 38 38
41 41 42 42 40 36 34 33 34 34 34 35 36 37 36 37 38 38 38 39 39 38 37 36 35 35 35 35 36 37 37 37 37 37 38 38 39 39 39 39 39 39 39 39 39 39 39 39 38 36 36 36 37 36 37 37 37 36 38 38 38 39 39 40 40 40 39 39 39 40 37 36 36 36 36 37 37 37 37 37 37 38 38 38 36
42 41 42 42 42 41 38 34 34 35 35 35 35 36 37 37 36 36 36 37 37 36 36 35 35 35 35 35 35 36 37 38 38 37 37 37 38 38 38 38 38 37 37 37 38 40 38 38 37 37 37 37 37 37 37 37 36 36 38 37 37 37 40 41 40 37 37 37 37 35 33 36 35 35 36 37 38 38 38 37 38 37 38 37 35
40 40 42 43 42 40 39 37 38 38 37 36 36 36 36 36 36 36 36 36 37 37 36 37 37 37 35 35 35 36 37 38 37 36 35 35 35 38 38 37 38 38 35 33 39 38 38 37 36 37 36 35 35 36 36 37 36 36 37 37 36 37 37 37 36 35 33 35 34 33 31 34 35 35 35 37 38 38 38 37 38 36 38 38 37
37 38 38 40 41 41 40 39 38 37 37 38 37 37 34 35 35 35 35 35 36 36 36 37 38 37 37 38 38 36 37 38 37 36 36 35 34 34 34 34 34 36 35 36 38 36 36 36 35 35 35 35 35 35 34 34 34 35 35 35 34 34 33 33 33 31 30 30 30 30 31 30 32 34 35 35 36 37 37 37 36 36 34 34 34
35 35 36 36 37 37 37 36 34 35 35 38 36 36 36 35 35 35 35 35 35 35 35 35 36 36 37 36 36 36 36 35 36 36 36 35 34 34 34 35 35 35 35 36 35 35 35 35 35 35 35 35 34 33 33 33 33 32 32 32 32 32 31 31 32 29 29 28 30 30 30 31 31 33 34 34 34 35 35 35 36 36 35 34 34
34 35 35 35 35 35 37 36 35 34 34 33 33 33 33 34 35 34 35 35 35 35 35 35 35 35 35 36 36 34 34 35 35 35 35 35 34 34 34 34 34 36 35 36 35 35 35 35 34 34 34 34 33 33 32 32 31 31 31 32 32 31 30 30 30 29 29 30 30 30 30 30 30 32 33 33 33 34 34 33 34 33 34 34 34
33 34 34 35 34 34 34 35 37 36 35 34 34 33 32 32 32 33 34 34 35 35 35 35 35 35 35 35 35 35 34 35 35 35 35 35 34 34 34 36 36 36 35 35 35 34 34 34 34 34 34 33 32 32 31 31 31 31 29 30 28 29 29 28 28 30 30 30 29 30 29 29 30 32 33 33 33 33 33 33 33 33 33 33 32
32 33 33 34 34 34 34 35 35 36 36 35 34 33 33 33 33 32 32 32 33 34 34 35 35 34 34 34 34 34 34 35 35 35 35 35 35 34 34 34 35 35 35 34 34 33 32 33 32 33 32 32 31 31 31 30 30 30 30 29 29 28 28 28 30 30 30 32 32 32 31 31 31 31 31 32 33 33 33 33 33 32 32 32 32
32 31 32 33 33 34 34 33 34 35 35 35 34 34 34 34 33 32 32 32 33 33 33 34 34 34 33 34 34 34 34 34 34 35 35 35 34 34 34 34 33 33 34 34 34 34 33 32 32 32 31 32 31 31 31 31 30 29 29 27 28 27 29 29 29 29 30 31 32 32 32 32 32 32 32 32 32 32 32 32 32 33 33 32 32
32 31 32 33 33 33 32 32 33 33 33 34 34 34 34 33 33 33 33 34 34 34 33 33 31 33 33 34 34 34 34 34 34 34 34 34 34 34 33 32 32 32 32 32 32 31 31 30 30 29 29 29 30 30 30 29 29 29 28 28 27 27 27 29 30 30 28 29 30 30 30 30 31 32 33 33 33 33 33 32 32 32 32 32 32
32 31 31 32 33 33 32 32 32 32 31 32 32 32 32 32 33 34 33 34 33 32 31 30 31 31 32 33 35 34 34 34 34 34 34 34 34 33 33 32 32 32 31 30 30 29 30 29 29 28 29 28 29 28 27 29 29 28 31 30 32 30 27 30 32 31 29 29 29 29 29 30 30 31 31 31 31 31 31 30 31 32 31 31 31
34 33 32 31 33 32 32 31 31 31 31 31 31 31 31 32 32 32 32 32 31 30 30 30 31 30 30 30 37 33 33 34 34 33 33 33 32 32 32 32 31 31 30 29 29 29 29 29 29 28 28 28 28 28 28 28 28 27 27 30 32 32 33 31 32 32 30 30 29 30 31 31 32 32 32 32 32 31 30 30 29 29 30 30 30
34 32 31 31 31 32 31 31 31 30 30 30 30 30 30 31 32 32 31 31 30 30 29 30 30 30 29 29 31 33 33 32 31 31 31 31 31 31 31 30 30 30 30 29 29 29 30 31 30 29 29 29 28 28 27 27 28 29 30 30 31 32 32 32 32 33 33 32 32 32 31 31 31 31 32 32 32 30 29 29 29 30 29 28 29
33 33 32 31 31 31 31 30 31 31 30 30 29 29 29 30 31 31 30 30 30 29 29 30 30 30 29 29 30 32 31 31 30 29 30 30 30 30 30 30 30 29 29 29 29 31 32 32 32 32 31 29 29 29 29 29 31 32 32 31 32 32 32 32 32 33 33 33 33 33 33 33 32 32 32 31 31 30 29 29 30 29 29 29 29
33 33 32 31 31 31 31 31 30 29 29 30 29 29 29 30 31 31 30 29 29 28 29 29 29 29 31 32 32 32 31 30 29 29 29 29 29 29 29 28 28 28 28 28 29 30 31 31 31 31 30 30 30 31 31 32 32 33 33 32 33 33 33 33 33 33 33 33 33 33 33 33 33 32 32 31 32 30 28 29 28 28 28 28 27
34 33 33 33 32 31 31 30 30 29 30 29 30 30 29 30 30 30 30 29 28 28 29 28 29 29 32 33 32 32 31 30 29 29 29 28 29 27 27 27 27 27 27 28 28 28 27 26 28 30 30 30 30 31 31 31 32 32 33 33 33 33 33 33 33 33 33 33 33 33 33 33 33 33 31 33 29 28 28 27 25 25 26 27 27
34 34 33 33 32 31 30 30 30 30 29 29 29 30 30 30 30 30 30 28 28 28 29 28 28 29 30 31 31 30 30 29 29 28 27 27 27 27 27 26 26 27 27 26 26 25 25 24 24 26 29 30 30 31 30 31 31 32 32 32 32 32 32 32 32 32 32 31 31 32 33 32 32 30 28 28 27 27 25 24 24 23 24 25 27
33 33 33 33 31 32 31 30 29 29 28 29 30 29 29 29 29 29 28 28 28 29 29 28 28 28 28 29 30 29 28 27 27 27 27 26 27 26 25 24 25 25 25 24 24 23 24 24 22 22 25 27 30 30 30 30 31 31 32 32 31 31 31 31 31 32 32 32 32 31 31 29 29 28 28 28 24 24 24 23 23 23 22 22 22
34 33 33 33 33 31 30 30 29 29 29 29 29 28 28 28 28 28 29 29 28 28 28 29 29 29 29 28 28 28 27 27 27 27 26 26 26 25 24 24 24 24 23 23 23 23 23 21 21 21 21 23 27 29 29 29 28 28 29 30 31 30 30 30 31 31 32 30 29 28 28 28 28 27 27 25 25 22 23 22 22 25 22 23 21
33 33 33 32 32 32 31 30 30 30 29 28 28 27 27 26 26 28 28 28 29 29 28 29 29 29 29 28 28 28 28 27 26 26 25 25 25 25 23 24 24 23 22 21 22 21 21 21 20 20 20 19 20 23 26 27 28 26 25 25 27 28 29 30 31 31 31 30 30 30 30 30 29 28 27 23 22 22 21 22 21 22 21 22 22
32 32 32 32 32 32 31 30 30 30 30 29 28 27 26 26 25 24 26 27 27 28 28 28 28 29 29 29 29 28 27 28 27 27 25 26 24 24 24 23 24 22 21 21 20 22 20 21 20 20 20 18 19 20 20 22 25 25 24 23 21 22 25 28 30 31 31 31 30 28 29 28 26 24 24 23 22 21 22 21 22 21 21 22 21
30 30 31 31 32 32 31 31 31 30 30 29 28 28 28 27 27 27 28 27 28 28 28 28 28 29 29 28 28 28 27 27 27 26 26 25 24 24 24 23 23 22 20 21 20 21 20 19 19 19 19 19 20 19 20 21 22 22 23 23 21 20 22 24 26 28 29 29 27 25 23 23 21 22 22 20 20 20 20 19 21 21 21 21 22
30 29 30 30 31 30 30 31 31 31 29 28 28 28 28 28 27 27 28 28 28 28 28 29 28 29 29 29 28 28 28 28 28 27 26 25 25 24 24 23 23 21 20 19 19 19 19 19 20 18 18 18 18 18 18 19 18 18 18 19 20 20 21 22 23 25 26 26 24 22 20 19 20 20 21 21 21 19 19 19 19 20 19 20 20
32 30 29 30 30 31 31 32 31 30 30 29 28 27 27 27 28 28 28 28 27 28 29 29 28 29 30 30 29 29 29 29 29 28 27 25 24 24 24 23 22 21 20 19 19 18 18 17 18 18 18 17 16 15 15 15 16 15 14 15 18 18 19 20 21 21 23 21 20 18 19 18 17 17 17 17 17 19 21 20 20 22 20 19 19
31 30 30 30 30 30 30 30 30 30 30 29 28 27 27 27 27 28 28 28 27 28 28 28 29 28 30 30 30 30 30 29 29 28 27 26 25 24 24 22 23 21 19 19 18 18 18 17 17 18 18 20 17 15 11 11 11 14 17 17 17 17 17 18 19 18 19 20 18 19 20 18 17 19 20 19 19 21 22 22 21 20 20 20 20